Starlink 31431

operational
NORAD ID: 59002 Int'l Des: 2024-036 Owner: SPXS Country: US Constellation: starlink
LEOCIRCULAR

About Starlink 31431

Description loading...

Live Position

Loading 3D Globe...

Upcoming Passes

Altitude History

Altitude vs Time

uPlot chart will show altitude changes over time

Two-Line Element Set

1 59002U 24036E 25303.27880177 .00004831 00000-0 17518-3 0 9995
2 59002 53.1582 324.0965 0001285 88.1720 271.9428 15.30191051 95354
Epoch: Oct 30, 2025 • Age: 14 hours

Current Status

Altitude 475.1 km
Velocity 7.63 km/s
Sub-Earth Point 12.08°N, 21.86°W
Launch Date Feb 23, 2024
Age 1.6 years
Type internet

Technical Details

Classification Payload
Mass 730.00 kg
Dry Mass 700.00 kg
Total Mass 730.00 kg
Length 0.30 m
Diameter 4.10 m
Span 29.00 m
Shape Box + pan
Manufacturer SPXS
Bus Type Starlink V2M
Phase Status In Orbit
Owner/State SPXS/US

Large Constellations

Loading constellations...